Location: Monteux
(44.0348°N, 4.9972°E)
Time: 17:17:47
(UTC+00:00)

USA 238 DEB - Pass Details

Date: 30 November 2020
Orbit: 997 x 1215 km, 63.4° (Epoch: 11 January)

Event Time Altitude Azimuth Distance (km) Brightness Sun altitude
Rises 17:44:51 0° 192° (SSW) 3,708 6.9 -17.7°
Reaches altitude 10° 17:47:31 10° 186° (S) 2,774 6.1 -18.2°
Maximum altitude 17:53:36 44° 116° (ESE) 1,398 4.0 -19.3°
Enters shadow 17:55:56 33° 72° (ENE) 1,692 4.2 -19.7°
